Regional Weather Roundup
Issued by NWS

Home | Current Version | Previous Version | Graphics & Text | Print | Product List | Glossary On
Versions: 1 2 3 4 5 6 7 8 9 10 11 12 13 14 15 16 17 18 19 20 21 22 23 24 25 26 27 28 29 30 31 32 33 34 35 36 37 38 39 40 41 42 43 44 45 46 47 48 49 50
000
ASUS43 KOAX 191402
RWRNE

WEATHER ROUNDUP FOR NEBRASKA
NATIONAL WEATHER SERVICE OMAHA NE
800 AM CST FRI DEC 19 2014

NOTES: SATELLITE DATA IS BEING USED TO AUGMENT CLOUD COVER ABOVE
       12000 FEET.
       "FAIR" INDICATES FEW OR NO CLOUDS BELOW 12,000 FEET WITH NO
       SIGNIFICANT WEATHER AND/OR OBSTRUCTIONS TO VISIBILITY.

  * THESE STATIONS DO NOT REPORT WEATHER SUCH AS RAIN...SNOW OR FOG.

NEZ001>004-019>022-054>056-191500-
NEBRASKA PANHANDLE

CITY           SKY/WX    TMP DP  RH WIND       PRES   REMARKS
SCOTTSBLUFF    PTCLDY     6   3  87 CALM      30.07R
ALLIANCE       PTCLDY     6   3  87 W7        30.04S WCI  -6
CHADRON        CLEAR      9   6  88 SW7       30.04S WCI  -2
SIDNEY         CLEAR     13   8  81 W9        30.07S WCI   1
$$

NEZ057>060-069>072-079>082-191500-
SOUTHWEST NEBRASKA

CITY           SKY/WX    TMP DP  RH WIND       PRES   REMARKS
NORTH PLATTE   CLEAR     12   7  80 NW3       30.10R
IMPERIAL       PTCLDY    12   7  80 CALM      30.11R
MCCOOK         CLEAR     16  13  88 W3        30.12S
$$

NEZ005>010-023>029-035>040-094-191500-
NORTH CENTRAL NEBRASKA

CITY           SKY/WX    TMP DP  RH WIND       PRES   REMARKS
VALENTINE      PTCLDY    12   9  87 SW10      30.04S WCI  -1
BROKEN BOW     CLOUDY    23  21  92 SW6       30.09S FOG     WCI  16
$$

NEZ041-046>049-061>064-073>077-083>087-191500-
SOUTH CENTRAL NEBRASKA

CITY           SKY/WX    TMP DP  RH WIND       PRES   REMARKS
GRAND ISLAND   CLOUDY    30  27  88 SW6       30.15R WCI  24
HASTINGS       CLOUDY    31  27  85 W7        30.14R WCI  24
KEARNEY *      CLOUDY    27  25  93 SW8       30.14R VSB 1/2 WCI  18
$$

NEZ011>018-030>034-042>045-191500-
NORTHEAST NEBRASKA

CITY           SKY/WX    TMP DP  RH WIND       PRES   REMARKS
NORFOLK        CLOUDY    29  26  89 S9        30.15S WCI  20
COLUMBUS *     CLOUDY    30  25  80 SW6       30.19R WCI  24
TEKAMAH        CLOUDY    31  29  92 SE6       30.22R FOG     WCI  25
$$

NEZ050>053-065>068-078-088>093-191500-
SOUTHEAST NEBRASKA

CITY           SKY/WX    TMP DP  RH WIND       PRES   REMARKS
LINCOLN        CLOUDY    31  28  89 S6        30.21S WCI  25
OMAHA EPPLEY   CLOUDY    31  28  89 SE8       30.24R FOG     WCI  23
FALLS CITY     CLOUDY    28  26  92 SW6       30.24S WCI  22
$$

NEZ044-045-051>053-067-191500-
OMAHA AREA

CITY           SKY/WX    TMP DP  RH WIND       PRES   REMARKS
OMAHA EPPLEY   CLOUDY    31  28  89 SE8       30.24R FOG     WCI  23
OFFUTT AFB     CLOUDY    30  28  93 SE5       30.22S FOG     WCI  25
$$


USA.gov is the U.S. government's official web portal to all federal, state and local government web resources and services.